Regional Weather Roundup
Issued by NWS New Orleans/Baton Rouge, LA

Home | Current Version | Previous Version | Graphics & Text | Print | Product List | Glossary On
Versions: 1 2 3 4 5 6 7 8 9 10 11 12 13 14 15 16 17 18 19 20 21 22 23 24 25 26 27 28 29 30 31 32 33 34 35 36 37 38 39 40 41 42 43 44 45 46 47 48 49 50
326
ASUS44 KLIX 271905
RWRLIX
NEW ORLEANS REGIONAL WEATHER ROUNDUP
NATIONAL WEATHER SERVICE NEW ORLEANS LA
100 PM CST THU NOV 27 2014

NOTE: "FAIR" INDICATES FEW OR NO CLOUDS BELOW 12,000 FEET WITH NO
      SIGNIFICANT WEATHER AND/OR OBSTRUCTIONS TO VISIBILITY.
      SKY/WX - SKY CONDITION AND SIGNIFICANT WEATHER.
      TMP - AIR TEMPERATURE.     DP    - DEWPOINT TEMPERATURE.
      RH  - RELATIVE HUMIDITY.   PRES  - PRESSURE.
      HI  - HEAT INDEX.          WCI   - WIND CHILL INDEX.

*  THESE STATIONS ARE NOT NWS OR FAA STATIONS AND ARE NOT UNDER
   NWS QUALITY CONTROL.

LAZ038-040-048-061>063-065>067-069-272000-
SOUTHEAST LOUISIANA

CITY           SKY/WX    TMP DP  RH WIND       PRES   REMARKS
N.O. AUDUBON     N/A     58  33  39 MISG        N/A
N.O. INTL ARPT MOSUNNY   58  33  39 N13       30.39F
N.O. LAKEFRONT SUNNY     58  35  42 NW13      30.40F
N.O. DOWNTOWN*   N/A     57  32  38 N10G16    30.40F
SLIDELL        SUNNY     60  29  30 N13       30.38F
BATON ROUGE    SUNNY     60  28  29 NW10      30.41F
BOOTHVILLE     SUNNY     57  39  51 N8        30.38F
BELLE CHASSE   SUNNY     60  30  32 VRB7      30.38F
BOGALUSA*        N/A     60  29  30 N14       30.42S
NEW ROADS*       N/A     57  31  37 NW8       30.43F
GONZALES*        N/A     61  30  31 N9        30.39F
HAMMOND*       SUNNY     61  27  27 N10       30.41F
HOUMA*         SUNNY     63  34  34 N10       30.38F
PORT FOURCHON* CLEAR     61  36  39 N14       30.40F

$$

MSZ070-080>082-272000-
SOUTHERN MISSISSIPPI

CITY           SKY/WX    TMP DP  RH WIND       PRES   REMARKS
MCCOMB         SUNNY     55  28  35 N10G20    30.42F
GULFPORT       SUNNY     60  29  30 NW14G21   30.37F
BILOXI         SUNNY     59  30  32 VRB5      30.37F
PASCAGOULA     SUNNY     60  29  30 N14G21    30.35F
STENNIS ARPT*  SUNNY     61  23  23 N12G17    30.38F

$$

COASTAL OBSERVATIONS
LAKE AND NEARSHORE STATIONS

STATION/POSITION TIME  TEMP    WIND        PRES    WAVE
                       AIR SEA DIR/SP/G            HT/PER
                 (UTC) (F)     (DEG/KT/KT) (MB)    (FT/S)
PASCAGOULA       1900   58     340/  9/ 15 1027.2
WAVELAND YACHT   1900   56     350/ 13/ 15 1027.6
GRAND ISLE       1900   57 59   20/ 10/ 14 1029.1
SOUTHWEST PASS   1900   61                 1028.7
NEW CANAL        1900   54 54  360/ 10/ 12 1029.5
SHELL BEACH      1900   54 53  350/ 11/ 12 1028.6

OFFSHORE STATIONS

STATION/POSITION TIME  TEMP    WIND        PRES    WAVE
                       AIR SEA DIR/SP/G            HT/PER
                 (UTC) (F)     (DEG/KT/KT) (MB)    (FT/S)
64 S DAUPHIN ISL 1849   58 71  360/ 17/ 23 1027.9    4/ 6

$$




USA.gov is the U.S. government's official web portal to all federal, state and local government web resources and services.